Home   Weather   Knox   Past weeks

Flag for USA Past Weather in Knox, Indiana, USA — Yesterday and Last 2 Weeks

Now
68 °F

Sunny.


Feels Like: 68 °F
Forecast: 47 / 68 °F
Wind: 17 mph from West

Location: Porter County Municipal Airport

Current Time: Sep 27, 2016 at 2:00:26 PM

Latest Report: Sep 27, 2016 at 12:56 PM


Visibility: 10 mi

Pressure: 29.80 "Hg

Humidity: 30%

Dew Point: 35 °F

Location of KnoxLocation

Past Weather in Knox — Graph

°F

Knox Temperature Yesterday

Maximum temperature yesterday: 69 °F (at 1:56 PM)
Minimum temperature yesterday: 51 °F (at 11:56 PM)
Average temperature yesterday: 62 °F

High & Low Weather Summary for the Past Weeks

 TemperatureHumidityPressure
High86 °F (Sep 19, 3:56 PM)100% (Sep 19, 4:56 AM)30.27 "Hg (Sep 19, 4:56 AM)
Low47 °F (Sep 27, 6:56 AM)30% (Sep 19, 3:56 PM)29.80 "Hg (Sep 27, 12:56 PM)
Average69 °F73%30.06 "Hg
* Reported Sep 12 12:56 PM — Sep 27 12:56 PM, Knox, Weather by CustomWeather, © 2016

Note: Actual official high and low records may vary slightly from our data, if they occured in-between our weather recording intervals... More about our weather records

Advertising

Knox Weather History for the Previous 24 Hours

Scroll right to see more
 ConditionsComfort  
Time TempWeatherWind HumidityBarometerVisibility
12:56 PM
Tue, Sep 27
68 °FSunny.17 mph30%29.80 "Hg10 mi
11:56 AM66 °FSunny.21 mph31%29.82 "Hg10 mi
10:56 AM65 °FSunny.18 mph37%29.84 "Hg10 mi
9:56 AM61 °FSunny.14 mph52%29.86 "Hg10 mi
8:56 AM55 °FSunny.12 mph67%29.86 "Hg10 mi
7:56 AM50 °FSunny.10 mph77%29.86 "Hg10 mi
6:56 AM47 °FSunny.10 mph83%29.87 "Hg10 mi
5:56 AM48 °FSunny.9 mph80%29.86 "Hg10 mi
4:56 AM48 °FClear.10 mph80%29.88 "Hg10 mi
3:56 AM48 °FClear.7 mph80%29.89 "Hg10 mi
2:56 AM49 °FClear.8 mph74%29.90 "Hg10 mi
1:56 AM49 °FClear.6 mph71%29.92 "Hg10 mi
12:56 AM51 °FClear.6 mph66%29.93 "Hg10 mi
11:56 PM
Mon, Sep 26
51 °FClear.6 mph63%29.94 "Hg10 mi
10:56 PM53 °FClear.6 mph59%29.96 "Hg10 mi
9:56 PM55 °FClear.7 mph55%29.97 "Hg10 mi
8:56 PM55 °FClear.6 mph57%29.97 "Hg10 mi
7:56 PM58 °FClear.9 mph50%29.97 "Hg10 mi
6:56 PM60 °FClear.7 mph42%29.96 "Hg10 mi
5:56 PM66 °FClear.12 mph31%29.94 "Hg10 mi
4:56 PM69 °FSunny.13 mph31%29.93 "Hg10 mi
3:56 PM69 °FSunny.18 mph30%29.94 "Hg10 mi
2:56 PM69 °FSunny.22 mph30%29.95 "Hg10 mi
Weather by CustomWeather, © 2016

See weather overviewHow to use our weather pages